EW1577 Weather Reports


Display with metric or nautical units.
time (UTC)temp
F
wind
direction
speed
MPH
gust
MPH
rain 1hr
in
rain 24hr
in
rain mn
in
humidity
%
barometer
mb
20171125040123 48 225 2.0 6.0 0.00 0.00 0.00 39 1006.4
20171125035625 48 225 3.0 6.0 0.00 0.00 0.00 39 1006.1
20171125035125 48 135 3.0 5.0 0.00 0.00 0.00 39 1006.4
20171125034625 47 113 2.0 5.0 0.00 0.00 0.00 39 1006.1
20171125034117 47 180 2.0 5.0 0.00 0.00 0.00 39 1006.4
20171125033103 47 158 3.0 6.0 0.00 0.00 0.00 40 1007.1
20171125032604 47 203 2.0 7.0 0.00 0.00 0.00 40 1007.1
20171125032057 47 225 2.0 8.0 0.00 0.00 0.00 40 1006.7
20171125031557 47 180 2.0 8.0 0.00 0.00 0.00 40 1006.7
20171125030554 47 180 3.0 5.0 0.00 0.00 0.00 40 1007.1
20171125030106 47 338 2.0 5.0 0.00 0.00 0.00 40 1007.1
20171125025551 47 0 2.0 7.0 0.00 0.00 0.00 40 1007.1
20171125025055 46 113 2.0 7.0 0.00 0.00 0.00 40 1008.1
20171125024542 46 158 2.0 4.0 0.00 0.00 0.00 40 1007.8
20171125024036 46 203 2.0 3.0 0.00 0.00 0.00 41 1007.4
20171125023531 46 180 2.0 3.0 0.00 0.00 0.00 41 1007.4
20171125023031 46 135 2.0 3.0 0.00 0.00 0.00 41 1007.4
20171125022525 46 158 2.0 5.0 0.00 0.00 0.00 41 1007.4
20171125022024 46 113 2.0 5.0 0.00 0.00 0.00 41 1007.8
20171125021524 46 180 2.0 4.0 0.00 0.00 0.00 43 1007.8
20171125021016 46 180 2.0 6.0 0.00 0.00 0.00 43 1008.1
20171125020518 46 248 2.0 6.0 0.00 0.00 0.00 43 1008.1
20171125020016 46 225 2.0 4.0 0.00 0.00 0.00 43 1008.1
20171125015508 46 203 2.0 4.0 0.00 0.00 0.00 43 1008.1
20171125014959 46 113 2.0 3.0 0.00 0.00 0.00 43 1008.4
20171125014455 45 158 1.0 4.0 0.00 0.00 0.00 43 1008.1
20171125013956 45 203 2.0 4.0 0.00 0.00 0.00 43 1008.1
20171125013450 45 113 2.0 4.0 0.00 0.00 0.00 44 1007.8
20171125012948 44 158 2.0 3.0 0.00 0.00 0.00 44 1008.1
20171125011945 44 203 2.0 3.0 0.00 0.00 0.00 44 1008.4
20171125011441 44 158 2.0 3.0 0.00 0.00 0.00 44 1008.1
20171125010933 44 203 2.0 4.0 0.00 0.00 0.00 44 1008.1
20171125010430 44 113 2.0 4.0 0.00 0.00 0.00 44 1008.1
20171125005931 43 203 2.0 4.0 0.00 0.00 0.00 45 1008.4
20171125005420 43 203 1.0 2.0 0.00 0.00 0.00 45 1008.1
20171125004920 43 225 1.0 3.0 0.00 0.00 0.00 45 1008.9
20171125004415 44 203 2.0 4.0 0.00 0.00 0.00 45 1008.1
20171125003916 44 180 2.0 4.0 0.00 0.00 0.00 45 1008.4
20171125002914 45 248 2.0 4.0 0.00 0.00 0.00 44 1008.1
20171125002412 44 158 1.0 3.0 0.00 0.00 0.00 44 1008.1
20171125001911 45 203 2.0 3.0 0.00 0.00 0.00 44 1009.2
20171125001407 44 158 2.0 5.0 0.00 0.00 0.00 45 1008.4
20171125000903 44 203 2.0 5.0 0.00 0.00 0.00 45 1008.9
20171125000403 44 203 1.0 3.0 0.00 0.00 0.00 45 1008.9
20171124234856 43 135 1.0 3.0 0.00 0.00 0.00 48 1008.4
20171124234357 43 135 1.0 2.0 0.00 0.00 0.00 48 1008.4
20171124233854 42 113 1.0 2.0 0.00 0.00 0.00 49 1008.4
20171124233350 42 225 0.0 2.0 0.00 0.00 0.00 49 1009.2
20171124232352 43 225 1.0 2.0 0.00 0.00 0.00 50 1008.4
20171124231851 43 225 0.0 1.0 0.00 0.00 0.00 50 1008.9
20171124231339 43 203 0.0 1.0 0.00 0.00 0.00 49 1008.4
20171124230324 43 225 0.0 2.0 0.00 0.00 0.00 46 1008.4
20171124225823 44 203 1.0 2.0 0.00 0.00 0.00 45 1008.1
20171124225322 44 248 0.0 2.0 0.00 0.00 0.00 45 1008.1
20171124224824 45 158 0.0 2.0 0.00 0.00 0.00 45 1008.4
20171124224321 45 158 0.0 2.0 0.00 0.00 0.00 44 1008.4
20171124223822 46 203 1.0 2.0 0.00 0.00 0.00 43 1008.4
20171124223320 46 158 1.0 1.0 0.00 0.00 0.00 43 1008.4
20171124222818 46 158 0.0 2.0 0.00 0.00 0.00 41 1008.9
20171124222320 47 158 1.0 2.0 0.00 0.00 0.00 40 1008.4
20171124221817 48 225 1.0 3.0 0.00 0.00 0.00 40 1008.4
20171124221310 48 225 1.0 3.0 0.00 0.00 0.00 40 1008.9
20171124220810 49 225 1.0 2.0 0.00 0.00 0.00 39 1008.4
20171124220301 49 225 1.0 2.0 0.00 0.00 0.00 37 1008.9
20171124215747 50 113 1.0 2.0 0.00 0.00 0.00 37 1008.4
20171124215244 50 225 1.0 2.0 0.00 0.00 0.00 37 1009.2
20171124214237 51 225 2.0 4.0 0.00 0.00 0.00 35 1008.9
20171124213729 52 203 1.0 3.0 0.00 0.00 0.00 35 1009.2
20171124213228 52 158 2.0 3.0 0.00 0.00 0.00 35 1009.2
20171124212731 52 203 2.0 4.0 0.00 0.00 0.00 34 1009.2
20171124212226 53 203 3.0 4.0 0.00 0.00 0.00 34 1009.2
20171124211726 52 225 2.0 4.0 0.00 0.00 0.00 35 1009.2
20171124211224 53 113 2.0 6.0 0.00 0.00 0.00 34 1009.2
20171124210725 53 225 3.0 6.0 0.00 0.00 0.00 34 1009.5
20171124210214 53 203 2.0 5.0 0.00 0.00 0.00 34 1009.2
20171124205713 53 180 2.0 5.0 0.00 0.00 0.00 34 1009.2
20171124205212 53 158 2.0 5.0 0.00 0.00 0.00 34 1009.2
20171124204711 52 113 2.0 4.0 0.00 0.00 0.00 35 1009.2
20171124203710 53 270 2.0 4.0 0.00 0.00 0.00 35 1009.2
20171124202703 53 203 3.0 7.0 0.00 0.00 0.00 35 1009.9
20171124202200 53 225 3.0 7.0 0.00 0.00 0.00 35 1009.2
20171124201652 53 135 2.0 5.0 0.00 0.00 0.00 35 1009.5
20171124201140 53 338 3.0 5.0 0.00 0.00 0.00 35 1009.5
20171124200633 53 158 3.0 6.0 0.00 0.00 0.00 35 1009.5
20171124200129 53 23 3.0 6.0 0.00 0.00 0.00 37 1009.2
20171124195627 53 158 3.0 5.0 0.00 0.00 0.00 37 1009.5
20171124195121 53 203 2.0 7.0 0.00 0.00 0.00 37 1009.5
20171124193618 53 225 3.0 6.0 0.00 0.00 0.00 37 1009.5
20171124193117 52 68 3.0 6.0 0.00 0.00 0.00 37 1009.9
20171124192615 53 180 3.0 6.0 0.00 0.00 0.00 37 1009.9
20171124192115 52 68 3.0 7.0 0.00 0.00 0.00 37 1009.9
20171124191610 52 158 3.0 7.0 0.00 0.00 0.00 37 1009.9
20171124191108 52 203 3.0 7.0 0.00 0.00 0.00 37 1010.6
20171124190603 52 203 4.0 7.0 0.00 0.00 0.00 37 1010.2
20171124185615 51 338 3.0 7.0 0.00 0.00 0.00 39 1009.9
20171124185114 51 248 3.0 7.0 0.00 0.00 0.00 37 1010.6
20171124184613 52 225 4.0 6.0 0.00 0.00 0.00 37 1010.6
20171124184106 51 225 3.0 7.0 0.00 0.00 0.00 37 1011.2
20171124183551 51 180 4.0 7.0 0.00 0.00 0.00 37 1010.9
20171124183042 51 270 4.0 7.0 0.00 0.00 0.00 37 1011.2
20171124182530 51 23 3.0 6.0 0.00 0.00 0.00 37 1010.9
20171124181519 51 180 3.0 6.0 0.00 0.00 0.00 37 1011.2
20171124181020 51 135 3.0 7.0 0.00 0.00 0.00 37 1010.9
20171124180511 51 225 2.0 7.0 0.00 0.00 0.00 35 1011.6
20171124180013 50 203 4.0 5.0 0.00 0.00 0.00 35 1012.0
20171124175510 51 203 3.0 8.0 0.00 0.00 0.00 37 1011.2
20171124174507 51 113 3.0 6.0 0.00 0.00 0.00 35 1012.4
20171124174007 51 203 3.0 6.0 0.00 0.00 0.00 37 1011.6
20171124173507 51 135 3.0 5.0 0.00 0.00 0.00 37 1012.0
20171124173000 51 68 2.0 5.0 0.00 0.00 0.00 37 1012.0
20171124172000 50 248 3.0 5.0 0.00 0.00 0.00 40 1012.7
20171124170958 49 203 3.0 6.0 0.00 0.00 0.00 40 1012.4
20171124170456 49 180 3.0 6.0 0.00 0.00 0.00 41 1013.0
20171124165952 49 225 3.0 8.0 0.00 0.00 0.00 41 1012.7
20171124165449 49 225 3.0 8.0 0.00 0.00 0.00 43 1013.4
20171124164450 48 180 2.0 4.0 0.00 0.00 0.00 43 1013.4
20171124163939 48 248 2.0 6.0 0.00 0.00 0.00 44 1013.4
20171124162926 47 135 3.0 7.0 0.00 0.00 0.00 45 1013.4
20171124162425 47 225 3.0 5.0 0.00 0.00 0.00 45 1013.4
20171124161920 47 203 2.0 4.0 0.00 0.00 0.00 46 1013.4
20171124161424 46 203 3.0 7.0 0.00 0.00 0.00 49 1013.7
20171124160918 46 158 3.0 7.0 0.00 0.00 0.00 46 1013.4
20171124160415 46 225 2.0 7.0 0.00 0.00 0.00 48 1014.0
20171124155415 46 203 3.0 6.0 0.00 0.00 0.00 50 1014.0
20171124154914 45 203 3.0 5.0 0.00 0.00 0.00 50 1014.0
20171124154408 44 158 2.0 5.0 0.00 0.00 0.00 51 1014.0
20171124153910 44 180 2.0 5.0 0.00 0.00 0.00 51 1014.4
20171124153401 44 158 2.0 5.0 0.00 0.00 0.00 51 1014.4
20171124152858 43 113 3.0 5.0 0.00 0.00 0.00 54 1014.4
20171124151356 42 203 2.0 5.0 0.00 0.00 0.00 58 1014.0
20171124150853 43 203 2.0 4.0 0.00 0.00 0.00 58 1014.4
20171124150353 42 68 2.0 4.0 0.00 0.00 0.00 59 1014.7
20171124145855 41 158 2.0 4.0 0.00 0.00 0.00 59 1015.1
20171124145347 41 203 2.0 3.0 0.00 0.00 0.00 60 1014.4
20171124144838 41 158 2.0 4.0 0.00 0.00 0.00 60 1014.7
20171124144335 41 248 2.0 5.0 0.00 0.00 0.00 60 1014.7
20171124143833 40 180 2.0 6.0 0.00 0.00 0.00 60 1014.4
20171124143326 40 203 2.0 6.0 0.00 0.00 0.00 61 1014.4
20171124142811 40 180 1.0 3.0 0.00 0.00 0.00 61 1014.4
20171124142309 40 158 2.0 4.0 0.00 0.00 0.00 61 1014.4
20171124141802 39 203 2.0 4.0 0.00 0.00 0.00 63 1014.4
20171124141301 38 203 2.0 4.0 0.00 0.00 0.00 63 1015.1
20171124140252 37 90 2.0 3.0 0.00 0.00 0.00 65 1015.1
20171124135753 37 135 2.0 3.0 0.00 0.00 0.00 66 1014.7
20171124135250 36 113 1.0 3.0 0.00 0.00 0.00 69 1014.4
20171124134751 36 113 1.0 3.0 0.00 0.00 0.00 69 1014.7
20171124134250 35 113 0.0 1.0 0.00 0.00 0.00 70 1014.4
20171124133749 34 113 0.0 3.0 0.00 0.00 0.00 73 1014.4
20171124133246 33 113 1.0 3.0 0.00 0.00 0.00 76 1014.0
20171124132747 30 113 0.0 2.0 0.00 0.00 0.00 83 1014.4
20171124131744 29 113 1.0 2.0 0.00 0.00 0.00 91 1014.7
20171124131244 29 113 1.0 2.0 0.00 0.00 0.00 91 1014.0
20171124130741 28 113 0.0 2.0 0.00 0.00 0.00 93 1014.4
20171124130239 28 113 0.0 1.0 0.00 0.00 0.00 93 1014.7
20171124125740 28 113 0.0 1.0 0.00 0.00 0.00 93 1014.0
20171124125239 28 113 0.0 0.0 0.00 0.00 0.00 95 1014.7
20171124124736 28 113 0.0 1.0 0.00 0.00 0.00 95 1014.0
20171124124236 27 113 0.0 1.0 0.00 0.00 0.00 96 1014.0
20171124123733 27 113 0.0 1.0 0.00 0.00 0.00 96 1014.7
20171124123224 27 113 0.0 1.0 0.00 0.00 0.00 96 1014.7
20171124122714 27 113 0.0 1.0 0.00 0.00 0.00 96 1014.7
20171124122215 27 113 0.0 1.0 0.00 0.00 0.00 96 1014.7
20171124121711 26 113 0.0 0.0 0.00 0.00 0.00 96 1014.4
20171124121202 27 113 0.0 1.0 0.00 0.00 0.00 96 1014.7
20171124120651 27 113 0.0 1.0 0.00 0.00 0.00 96 1014.0
20171124120151 26 113 0.0 1.0 0.00 0.00 0.00 96 1014.4
20171124115651 26 113 0.0 0.0 0.00 0.00 0.00 96 1014.4
20171124115145 26 113 0.0 0.0 0.00 0.00 0.00 96 1014.7
20171124114646 26 113 0.0 0.0 0.00 0.00 0.00 96 1014.7
20171124114145 26 113 0.0 0.0 0.00 0.00 0.00 96 1014.7
20171124113645 27 113 0.0 0.0 0.00 0.00 0.00 96 1014.0
20171124113140 26 113 0.0 0.0 0.00 0.00 0.00 96 1014.0
20171124112636 26 113 0.0 0.0 0.00 0.00 0.00 96 1014.7
20171124111630 27 113 0.0 1.0 0.00 0.00 0.00 96 1014.0
20171124111129 27 113 0.0 0.0 0.00 0.00 0.00 95 1014.4
20171124110632 27 113 0.0 0.0 0.00 0.00 0.00 95 1014.4
20171124110124 27 113 0.0 1.0 0.00 0.00 0.00 95 1014.4
20171124105612 27 113 0.0 1.0 0.00 0.00 0.00 95 1015.1
20171124105106 27 113 0.0 1.0 0.00 0.00 0.00 95 1014.0
20171124104603 27 113 0.0 1.0 0.00 0.00 0.00 95 1014.7
20171124104104 27 113 0.0 1.0 0.00 0.00 0.00 95 1014.0
20171124103557 27 113 0.0 1.0 0.00 0.00 0.00 95 1015.1
20171124103052 27 113 0.0 1.0 0.00 0.00 0.00 95 1014.7
20171124102553 27 113 0.0 1.0 0.00 0.00 0.00 96 1014.4
20171124102048 27 113 0.0 1.0 0.00 0.00 0.00 96 1014.4
20171124101545 27 113 0.0 0.0 0.00 0.00 0.00 96 1014.7
20171124101045 26 113 0.0 0.0 0.00 0.00 0.00 98 1015.1
20171124100546 27 113 0.0 1.0 0.00 0.00 0.00 98 1014.7
20171124100054 26 113 0.0 1.0 0.00 0.00 0.00 98 1014.7
20171124095534 26 113 0.0 0.0 0.00 0.00 0.00 98 1014.7
20171124094524 26 113 0.0 1.0 0.00 0.00 0.00 98 1014.4
20171124094027 26 113 0.0 1.0 0.00 0.00 0.00 98 1014.4
20171124093030 26 113 0.0 1.0 0.00 0.00 0.00 98 1014.4
20171124091002 26 113 0.0 1.0 0.00 0.00 0.00 98 1015.5
20171124090457 26 113 0.0 0.0 0.00 0.00 0.00 98 1014.7
20171124085451 25 113 0.0 0.0 0.00 0.00 0.00 98 1015.1
20171124084443 26 113 0.0 0.0 0.00 0.00 0.00 98 1015.1
20171124083943 25 113 0.0 0.0 0.00 0.00 0.00 98 1014.7
20171124083433 25 113 0.0 0.0 0.00 0.00 0.00 98 1014.7
20171124082929 25 113 0.0 0.0 0.00 0.00 0.00 98 1015.5
20171124082425 25 113 0.0 0.0 0.00 0.00 0.00 98 1015.5
20171124081926 25 113 0.0 0.0 0.00 0.00 0.00 98 1014.7
20171124081418 25 113 0.0 0.0 0.00 0.00 0.00 98 1014.7
20171124080921 25 113 0.0 0.0 0.00 0.00 0.00 98 1014.4
20171124080417 25 113 0.0 0.0 0.00 0.00 0.00 98 1015.1
20171124075914 25 113 0.0 0.0 0.00 0.00 0.00 98 1014.4
20171124075415 25 113 0.0 0.0 0.00 0.00 0.00 98 1014.7
20171124074912 25 113 0.0 0.0 0.00 0.00 0.00 98 1015.5
20171124074411 25 113 0.0 0.0 0.00 0.00 0.00 98 1015.1
20171124073909 25 113 0.0 0.0 0.00 0.00 0.00 98 1015.5
20171124073410 25 113 0.0 1.0 0.00 0.00 0.00 98 1015.5
20171124072904 25 113 0.0 1.0 0.00 0.00 0.00 98 1015.5
20171124072351 25 113 0.0 0.0 0.00 0.00 0.00 98 1015.5
20171124071340 25 113 0.0 1.0 0.00 0.00 0.00 98 1015.1
20171124070838 25 113 0.0 1.0 0.00 0.00 0.00 98 1015.8
20171124070333 25 113 0.0 0.0 0.00 0.00 0.00 98 1016.2
20171124065833 25 113 0.0 0.0 0.00 0.00 0.00 98 1015.5
20171124065333 25 113 0.0 0.0 0.00 0.00 0.00 98 1015.5
20171124064823 25 113 0.0 0.0 0.00 0.00 0.00 98 1015.8
20171124064318 25 113 0.0 1.0 0.00 0.00 0.00 98 1015.8
20171124063312 25 113 1.0 1.0 0.00 0.00 0.00 98 1015.8
20171124062311 25 113 0.0 0.0 0.00 0.00 0.00 98 1016.2
20171124061807 25 113 0.0 0.0 0.00 0.00 0.00 98 1015.5
20171124061307 25 113 0.0 0.0 0.00 0.00 0.00 98 1015.5
20171124060804 25 113 0.0 0.0 0.00 0.00 0.00 98 1016.2
20171124060301 26 113 0.0 0.0 0.00 0.00 0.00 98 1015.8
20171124055758 26 113 0.0 0.0 0.00 0.00 0.00 98 1016.5
20171124055255 26 113 0.0 0.0 0.00 0.00 0.00 98 1015.8
20171124054754 26 113 0.0 0.0 0.00 0.00 0.00 98 1015.8
20171124054255 26 113 0.0 0.0 0.00 0.00 0.00 98 1016.5
20171124053744 26 113 0.0 0.0 0.00 0.00 0.00 98 1016.2
20171124053237 26 113 0.0 0.0 0.00 0.00 0.00 98 1016.2
20171124052734 26 113 0.0 0.0 0.00 0.00 0.00 98 1015.8
20171124052231 26 113 0.0 0.0 0.00 0.00 0.00 98 1016.2
20171124051726 26 113 0.0 0.0 0.00 0.00 0.00 98 1016.5
20171124051226 26 113 0.0 0.0 0.00 0.00 0.00 98 1016.5
20171124050725 26 113 0.0 0.0 0.00 0.00 0.00 98 1016.5
20171124045708 26 113 0.0 0.0 0.00 0.00 0.00 98 1016.2
20171124045206 26 113 0.0 1.0 0.00 0.00 0.00 98 1016.2
20171124044701 26 113 0.0 2.0 0.00 0.00 0.00 96 1016.9
20171124043656 25 113 0.0 0.0 0.00 0.00 0.00 93 1016.5
20171124043158 25 113 0.0 0.0 0.00 0.00 0.00 93 1016.5
20171124042658 25 113 0.0 0.0 0.00 0.00 0.00 91 1016.5
20171124042155 25 113 0.0 0.0 0.00 0.00 0.00 91 1016.5
20171124041653 25 113 0.0 0.0 0.00 0.00 0.00 91 1016.9
20171124041148 25 113 0.0 0.0 0.00 0.00 0.00 91 1017.2
20171124040645 25 113 0.0 0.0 0.00 0.00 0.00 91 1016.9